Glendale Luke AFB, AZ

8:57 PM MST on November 18, 2019 (GMT -0700)
Luke Air Force Base

Weather History for KLUF - July, 2019

Change the Weather History Date:

Saturday, July 20, 2019

  Actual Average Record
Temperature  
Mean Temperature 92 °F -  
Max Temperature 107 °F 107 °F 115 °F (1961)
Min Temperature 77 °F 75 °F 58 °F (1928)
Cooling Degree Days 27    
Growing Degree Days 42 (Base 50)    
Moisture  
Dew Point 39 °F    
Average Humidity 15    
Maximum Humidity 27    
Minimum Humidity 8    
Precipitation  
Precipitation 0.00 in - - ()
Sea Level Pressure  
Sea Level Pressure 29.73 in    
Wind  
Wind Speed 8 mph (SW)    
Max Wind Speed 15 mph    
Max Gust Speed 23 mph    
Visibility 10 miles    
Events      
Averages and records for this station are not official NWS values.
T = Trace of Precipitation, MM = Missing Value Source: NWS Daily Summary

Daily Weather History Graph

Daily Weather History Graph

Search for Another Location

Airport or City:

Astronomy

Jul. 20, 2019 Rise Set
Actual Time 5:33 AM MST 7:37 PM MST
Civil Twilight 5:05 AM MST 8:05 PM MST
Nautical Twilight 4:31 AM MST 8:39 PM MST
Astronomical Twilight 3:54 AM MST 9:16 PM MST
Moon 10:16 PM MST (7/20) 8:53 AM MST (7/20)
Length of Visible Light 15h 00m
Length of Day
14h 04m
Waning Gibbous, 86% of the Moon is Illuminated
Jul 20
Waning Gibbous
Jul 24
Last Quarter
Jul 31
New
Aug 7
First Quarter
Aug 15
Full

Hourly Weather History & Observations

Time (MST) Temp. Heat Index Dew Point Humidity Pressure Visibility Wind Dir Wind Speed Gust Speed Precip Events Conditions
12:58 AM 89.4 °F - 30.0 °F 12% 29.72 in 10.0 mi SW 11.5 mph - N/A   Clear
1:58 AM 89.2 °F - 27.9 °F 11% 29.72 in 10.0 mi SSW 9.2 mph - N/A   Clear
2:58 AM 85.8 °F - 36.0 °F 17% 29.73 in 10.0 mi West 3.5 mph - N/A   Partly Cloudy
3:58 AM 84.7 °F - 36.5 °F 18% 29.73 in 10.0 mi Calm Calm - N/A   Clear
4:58 AM 80.1 °F - 36.5 °F 21% 29.75 in 10.0 mi North 4.6 mph - N/A   Clear
5:58 AM 77.9 °F - 38.1 °F 24% 29.76 in 10.0 mi Calm Calm - N/A   Clear
6:58 AM 83.1 °F - 32.2 °F 16% 29.78 in 10.0 mi Calm Calm - N/A   Clear
7:58 AM 88.5 °F - 38.1 °F 17% 29.80 in 10.0 mi SSW 3.5 mph - N/A   Clear
8:58 AM 93.9 °F - 42.4 °F 17% 29.81 in 10.0 mi SW 13.8 mph - N/A   Clear
9:58 AM 96.8 °F - 41.5 °F 15% 29.81 in 10.0 mi SW 11.5 mph 19.6 mph N/A   Clear
10:58 AM 98.8 °F - 41.2 °F 14% 29.81 in 10.0 mi South 12.7 mph - N/A   Clear
11:58 AM 99.9 °F - 40.1 °F 13% 29.79 in 10.0 mi WSW 8.1 mph - N/A   Partly Cloudy
12:58 PM 101.3 °F - 39.2 °F 12% 29.78 in 10.0 mi South 6.9 mph - N/A   Scattered Clouds
1:58 PM 104.0 °F - 36.7 °F 10% 29.74 in 10.0 mi SSW 12.7 mph 18.4 mph N/A   Partly Cloudy
2:35 PM 105.8 °F - 35.6 °F 9% 29.73 in 10.0 mi SW 12.7 mph 20.7 mph N/A   Clear
2:58 PM 105.6 °F - 37.8 °F 10% 29.71 in 10.0 mi SW 15.0 mph 21.9 mph N/A   Clear
3:21 PM 105.8 °F - 39.2 °F 10% 29.72 in 10.0 mi SSW 12.7 mph 23.0 mph N/A   Clear
3:58 PM 106.3 °F - 38.3 °F 10% 29.70 in 10.0 mi SW 12.7 mph 17.3 mph N/A   Clear
4:44 PM 107.6 °F - 35.6 °F 8% 29.68 in 10.0 mi WSW 13.8 mph - N/A   Clear
4:49 PM 107.6 °F - 33.8 °F 8% 29.68 in 10.0 mi SSW 11.5 mph - N/A   Clear
4:58 PM 107.4 °F - 33.6 °F 8% 29.67 in 10.0 mi SW 13.8 mph - N/A   Clear
5:58 PM 106.5 °F - 35.8 °F 9% 29.66 in 10.0 mi SW 15.0 mph - N/A   Clear
6:58 PM 104.7 °F - 39.6 °F 11% 29.65 in 10.0 mi SSW 10.4 mph - N/A   Clear
7:58 PM 99.7 °F - 45.5 °F 16% 29.68 in 10.0 mi West 4.6 mph - N/A   Clear
8:58 PM 98.2 °F - 48.9 °F 19% 29.69 in 10.0 mi WSW 6.9 mph - N/A   Clear
9:58 PM 95.5 °F - 51.8 °F 23% 29.71 in 10.0 mi WSW 9.2 mph - N/A   Clear
10:58 PM 95.0 °F 92.7 °F 53.6 °F 25% 29.71 in 10.0 mi WSW 10.4 mph - N/A   Clear
11:58 PM 92.8 °F 90.6 °F 54.0 °F 27% 29.72 in 10.0 mi West 3.5 mph - N/A   Clear